FW3232 Weather Reports


Display with metric or nautical units.
time (UTC)temp
F
wind
direction
speed
MPH
gust
MPH
rain 1hr
in
rain 24hr
in
rain mn
in
humidity
%
barometer
mb
20260505152914 67 150 5.0 10.0 0.00 0.00 0.00 83 1006.4
20260505152415 67 126 8.0 11.0 0.00 0.00 0.00 83 1006.1
20260505151914 66 130 4.0 11.0 0.00 0.00 0.00 84 1006.0
20260505151412 65 146 6.0 9.0 0.00 0.00 0.00 86 1005.9
20260505150914 65 148 3.0 5.0 0.00 0.00 0.00 85 1006.4
20260505150414 65 166 4.0 5.0 0.00 0.00 0.00 85 1006.5
20260505101915 60 0 0.0 3.0 0.00 0.00 0.00 99 1005.6
20260505101413 60 36 2.0 3.0 0.00 0.00 0.00 99 1005.7
20260505090412 60 145 3.0 3.0 0.00 0.00 0.00 99 1006.0
20260505085414 60 13 2.0 3.0 0.00 0.00 0.00 99 1006.8
20260505064411 60 332 0.0 2.0 0.00 0.00 0.00 92 1006.2
20260505063913 60 358 0.0 2.0 0.00 0.00 0.00 91 1006.2
20260505063411 61 333 0.0 2.0 0.00 0.00 0.00 90 1006.2
20260505062912 61 346 0.0 2.0 0.00 0.00 0.00 88 1006.3
20260505062412 61 0 0.0 0.0 0.00 0.00 0.00 87 1006.3
20260505061913 61 0 0.0 2.0 0.00 0.00 0.00 86 1006.4
20260505061412 61 0 0.0 1.0 0.00 0.00 0.00 85 1006.4
20260505060919 61 0 0.0 0.0 0.00 0.00 0.00 86 1006.6
20260505060411 61 0 0.0 1.0 0.00 0.00 0.00 86 1006.5
20260505055912 61 0 0.0 1.0 0.00 0.00 0.00 86 1006.6
20260505055411 61 333 0.0 1.0 0.00 0.00 0.00 85 1006.7
20260505054911 61 0 0.0 1.0 0.00 0.00 0.00 85 1006.7
20260505054412 61 358 0.0 2.0 0.00 0.00 0.00 85 1006.6
20260505053911 61 331 1.0 2.0 0.00 0.00 0.00 86 1006.6
20260505053411 60 330 0.0 2.0 0.00 0.00 0.00 85 1006.6
20260505052912 60 332 0.0 2.0 0.00 0.00 0.00 85 1006.6
20260505052412 61 339 1.0 2.0 0.00 0.00 0.00 85 1006.3
20260505051912 61 345 1.0 1.0 0.00 0.00 0.00 84 1006.2
20260505051411 61 327 0.0 1.0 0.00 0.00 0.00 84 1006.2
20260505050912 61 0 0.0 1.0 0.00 0.00 0.00 84 1006.3
20260505050413 60 1 0.0 2.0 0.00 0.00 0.00 84 1006.4
20260505041411 62 0 0.0 1.0 0.00 0.00 0.00 83 1006.9
20260505040913 62 0 0.0 2.0 0.00 0.00 0.00 82 1007.0
20260505040411 62 329 0.0 2.0 0.00 0.00 0.00 80 1007.1
20260505035911 62 319 0.0 2.0 0.00 0.00 0.00 80 1007.2
20260505035413 62 353 1.0 2.0 0.00 0.00 0.00 80 1007.2
20260505034912 63 0 0.0 2.0 0.00 0.00 0.00 79 1007.2
20260505034411 63 0 0.0 0.0 0.00 0.00 0.00 79 1007.2
20260505033912 63 0 0.0 2.0 0.00 0.00 0.00 78 1007.2
20260505033411 63 347 2.0 2.0 0.00 0.00 0.00 78 1007.3
20260505032911 63 0 0.0 2.0 0.00 0.00 0.00 78 1007.2
20260505032412 63 0 0.0 2.0 0.00 0.00 0.00 78 1007.3
20260505031911 63 0 0.0 1.0 0.00 0.00 0.00 78 1007.4
20260505031412 63 0 0.0 2.0 0.00 0.00 0.00 78 1007.4
20260505030911 63 344 1.0 2.0 0.00 0.00 0.00 78 1007.3
20260505030411 64 351 1.0 2.0 0.00 0.00 0.00 77 1007.3
20260505025911 64 343 1.0 2.0 0.00 0.00 0.00 76 1007.3
20260505025411 64 356 0.0 2.0 0.00 0.00 0.00 76 1007.3
20260505024911 64 352 1.0 2.0 0.00 0.00 0.00 75 1007.3
20260505024411 64 0 0.0 1.0 0.00 0.00 0.00 75 1007.3
20260505023912 65 0 0.0 1.0 0.00 0.00 0.00 74 1007.2
20260505023412 65 0 0.0 2.0 0.00 0.00 0.00 72 1007.3
20260505022912 65 275 0.0 2.0 0.00 0.00 0.00 72 1007.3
20260505022412 66 320 0.0 2.0 0.00 0.00 0.00 71 1007.3
20260505021911 67 252 0.0 0.0 0.00 0.00 0.00 71 1007.1
20260505021411 67 0 0.0 0.0 0.00 0.00 0.00 69 1007.0
20260505020912 68 191 0.0 1.0 0.00 0.00 0.00 68 1006.9
20260505020412 68 0 0.0 2.0 0.00 0.00 0.00 67 1006.8
20260505015912 69 11 0.0 2.0 0.00 0.00 0.00 65 1006.8
20260505015411 69 12 0.0 3.0 0.00 0.00 0.00 64 1006.7
20260505014911 70 147 0.0 3.0 0.00 0.00 0.00 63 1006.6
20260505014411 70 0 0.0 3.0 0.00 0.00 0.00 62 1006.5
20260505013912 70 0 0.0 4.0 0.00 0.00 0.00 62 1006.4
20260505013412 70 117 2.0 4.0 0.00 0.00 0.00 62 1006.4
20260505012912 71 132 0.0 3.0 0.00 0.00 0.00 62 1006.3
20260505012411 71 342 1.0 4.0 0.00 0.00 0.00 61 1006.3
20260505011914 71 355 0.0 4.0 0.00 0.00 0.00 61 1006.3
20260505011413 71 17 2.0 5.0 0.00 0.00 0.00 61 1006.3
20260505010912 71 90 0.0 4.0 0.00 0.00 0.00 62 1006.1
20260505010412 71 53 1.0 5.0 0.00 0.00 0.00 62 1006.0
20260505005913 71 135 1.0 5.0 0.00 0.00 0.00 62 1006.0
20260505005411 71 170 3.0 4.0 0.00 0.00 0.00 63 1005.9
20260505004911 72 158 2.0 3.0 0.00 0.00 0.00 61 1005.9
20260505004415 72 53 1.0 3.0 0.00 0.00 0.00 61 1005.9
20260505003913 72 138 1.0 4.0 0.00 0.00 0.00 61 1005.8
20260505003412 73 177 0.0 2.0 0.00 0.00 0.00 61 1005.8
20260505002914 74 158 0.0 3.0 0.00 0.00 0.00 59 1005.6
20260505002411 74 146 1.0 4.0 0.00 0.00 0.00 57 1005.6
20260505001911 74 145 2.0 5.0 0.00 0.00 0.00 55 1005.5
20260505001411 75 58 2.0 5.0 0.00 0.00 0.00 55 1005.5
20260505000911 75 120 2.0 10.0 0.00 0.00 0.00 55 1005.5
20260505000413 75 8 4.0 10.0 0.00 0.00 0.00 54 1005.6
20260504235912 76 117 2.0 6.0 0.00 0.00 0.00 54 1005.5
20260504235412 76 47 2.0 5.0 0.00 0.00 0.00 54 1005.5
20260504234912 76 109 2.0 5.0 0.00 0.00 0.00 53 1005.5
20260504234412 76 40 2.0 6.0 0.00 0.00 0.00 53 1005.3
20260504233912 76 155 4.0 9.0 0.00 0.00 0.00 52 1005.3
20260504233411 76 82 2.0 8.0 0.00 0.00 0.00 52 1005.5
20260504232911 77 125 1.0 6.0 0.00 0.00 0.00 51 1005.6
20260504232411 77 91 3.0 10.0 0.00 0.00 0.00 51 1005.6
20260504231912 77 141 4.0 10.0 0.00 0.00 0.00 51 1005.3
20260504231411 78 44 3.0 9.0 0.00 0.00 0.00 50 1005.5
20260504230912 78 340 2.0 8.0 0.00 0.00 0.00 51 1005.5
20260504230411 78 157 3.0 7.0 0.00 0.00 0.00 51 1005.5
20260504221912 80 331 6.0 9.0 0.00 0.00 0.00 45 1005.8
20260504221411 80 141 4.0 9.0 0.00 0.00 0.00 47 1006.0
20260504220911 81 38 4.0 7.0 0.00 0.00 0.00 46 1006.0
20260504210414 82 0 4.0 8.0 0.00 0.00 0.00 44 1006.2
20260504205412 81 346 7.0 11.0 0.00 0.00 0.00 44 1006.3
20260504204412 82 315 4.0 13.0 0.00 0.00 0.00 44 1006.3
20260504203411 82 233 7.0 12.0 0.00 0.00 0.00 43 1006.5
20260504202914 82 294 5.0 12.0 0.00 0.00 0.00 44 1006.6
20260504202413 82 303 6.0 11.0 0.00 0.00 0.00 43 1006.6
20260504201912 82 184 4.0 12.0 0.00 0.00 0.00 44 1006.6
20260504201412 82 0 4.0 9.0 0.00 0.00 0.00 45 1006.6
20260504200912 81 37 3.0 11.0 0.00 0.00 0.00 44 1006.8
20260504200414 81 218 5.0 11.0 0.00 0.00 0.00 44 1006.7
20260504195911 81 42 4.0 10.0 0.00 0.00 0.00 44 1006.9
20260504195412 82 69 5.0 13.0 0.00 0.00 0.00 44 1006.7
20260504194913 82 314 7.0 13.0 0.00 0.00 0.00 45 1006.8
20260504194414 82 87 4.0 9.0 0.00 0.00 0.00 44 1006.8
20260504193914 82 303 5.0 10.0 0.00 0.00 0.00 44 1007.0
20260504184913 81 264 5.0 12.0 0.00 0.00 0.00 45 1007.4
20260504184413 81 271 5.0 12.0 0.00 0.00 0.00 46 1007.3
20260504183413 81 126 6.0 13.0 0.00 0.00 0.00 45 1007.4
20260504182914 81 132 5.0 11.0 0.00 0.00 0.00 45 1007.4
20260504182413 80 211 5.0 11.0 0.00 0.00 0.00 45 1007.7
20260504181914 80 111 3.0 11.0 0.00 0.00 0.00 47 1007.7
20260504181412 80 116 5.0 12.0 0.00 0.00 0.00 46 1007.7
20260504180914 80 161 6.0 10.0 0.00 0.00 0.00 47 1007.9
20260504180413 81 147 5.0 10.0 0.00 0.00 0.00 46 1007.8
20260504175913 80 78 5.0 10.0 0.00 0.00 0.00 46 1007.7
20260504175413 80 299 5.0 9.0 0.00 0.00 0.00 46 1007.9
20260504174913 79 190 6.0 12.0 0.00 0.00 0.00 46 1007.9
20260504174413 79 113 6.0 14.0 0.00 0.00 0.00 46 1007.9
20260504173913 80 251 5.0 15.0 0.00 0.00 0.00 46 1008.2
20260504173413 80 329 4.0 12.0 0.00 0.00 0.00 45 1008.1
20260504172913 80 68 4.0 10.0 0.00 0.00 0.00 45 1008.1
20260504172411 80 44 3.0 11.0 0.00 0.00 0.00 45 1008.0
20260504171915 79 304 6.0 11.0 0.00 0.00 0.00 46 1008.0
20260504171413 79 129 5.0 13.0 0.00 0.00 0.00 46 1008.2
20260504170914 78 84 4.0 10.0 0.00 0.00 0.00 47 1008.0
20260504170414 78 248 6.0 12.0 0.00 0.00 0.00 46 1008.1
20260504160412 77 323 2.0 12.0 0.00 0.00 0.00 48 1008.8